Home > Weather > Abeokuta > Past weeks

Flag for Nigeria Past Weather in Abeokuta, Nigeria — Yesterday and Last 2 Weeks

Now
79 °F

Passing clouds.


Feels Like: 82 °F
Forecast: 73 / 84 °F
Wind: 5 mph from South

Location: Lagos / Ikeja

Current Time: Jul 29, 2016 at 8:51:43 PM

Latest Report: Jul 29, 2016 at 8:00 PM


Visibility: N/A

Pressure: 29.95 "Hg

Humidity: 84%

Dew Point: 73 °F

Location of AbeokutaLocation

Past Weather in Abeokuta — Graph

°F

Abeokuta Temperature Yesterday

Maximum temperature yesterday: 86 °F (at 5:00 PM)
Minimum temperature yesterday: 75 °F (at 4:00 AM)
Average temperature yesterday: 78 °F

High & Low Weather Summary for the Past Weeks

 TemperatureHumidityPressure
High86 °F (Jul 15, 2:00 PM)100% (Jul 16, 5:00 AM)30.04 "Hg (Jul 16, 5:00 AM)
Low75 °F (Jul 15, 4:00 AM)62% (Jul 15, 5:00 PM)29.86 "Hg (Jul 16, 4:00 PM)
Average79 °F86%29.96 "Hg
* Reported Jul 14 7:00 PM — Jul 29 7:00 PM, Abeokuta, Weather by CustomWeather, © 2016

Note: Actual official high and low records may vary slightly from our data, if they occured in-between our weather recording intervals... More about our weather records

Advertising

Abeokuta Weather History for the Previous 24 Hours

Scroll right to see more
 ConditionsComfort  
Time TempWeatherWind HumidityBarometerVisibility
7:00 PM
Fri, Jul 29
79 °FScattered clouds.6 mph84%29.92 "HgN/A
6:00 PM79 °FPartly sunny.3 mph84%29.92 "HgN/A
5:00 PM82 °FPartly sunny.6 mph74%29.92 "HgN/A
4:00 PM82 °FPartly sunny.6 mph74%29.95 "HgN/A
3:00 PM84 °FPartly sunny.8 mph74%29.95 "HgN/A
2:00 PM82 °FPartly sunny.8 mph79%29.98 "HgN/A
1:00 PM81 °FPartly sunny.5 mph84%29.98 "HgN/A
12:00 PM81 °FPartly sunny.8 mph84%30.01 "HgN/A
11:00 AM81 °FPartly sunny.3 mph84%30.01 "HgN/A
10:00 AM81 °FScattered clouds.5 mph79%30.01 "HgN/A
8:00 AM77 °FScattered clouds.5 mph94%30.01 "Hg5 mi
7:00 AM75 °FPartly sunny.5 mph94%29.98 "Hg4 mi
6:00 AM75 °FPassing clouds.No wind94%29.98 "Hg5 mi
5:00 AM75 °FPassing clouds.2 mph94%29.98 "HgN/A
4:00 AM75 °FPassing clouds.No wind94%29.98 "HgN/A
3:00 AM77 °FPassing clouds.2 mph94%29.98 "HgN/A
2:00 AM77 °FPassing clouds.No wind94%29.98 "HgN/A
1:00 AM77 °FPassing clouds.No wind89%29.98 "HgN/A
12:00 AM77 °FPassing clouds.3 mph89%29.98 "HgN/A
11:00 PM
Thu, Jul 28
77 °FPassing clouds.5 mph89%30.01 "HgN/A
10:00 PM77 °FPassing clouds.5 mph89%29.98 "HgN/A
9:00 PM79 °FPassing clouds.3 mph84%29.98 "HgN/A
8:00 PM79 °FPassing clouds.6 mph84%29.95 "HgN/A
Weather by CustomWeather, © 2016

See weather overviewHow to use our weather pages